Previsão horária em Cerro Azul

Hoje, 29 Julho, Quinta-feira

Tempo Temperatura Precipitação Vento Pressão Humidade
00:00 +25°C° 0 mm 1 m/s 749 mmHg 91%
01:00 +25°C° 0 mm 1 m/s 748 mmHg 92%
02:00 +25°C° 0 mm 1 m/s 748 mmHg 92%
03:00 +25°C° 0 mm 1 m/s 748 mmHg 92%
04:00 +24°C° 0 mm 1 m/s 748 mmHg 92%
05:00 +24°C° 0 mm 1 m/s 748 mmHg 93%
06:00 +26°C° 0 mm 1 m/s 749 mmHg 85%
07:00 +28°C° 0 mm 1 m/s 749 mmHg 78%
08:00 +30°C° 0 mm 1 m/s 750 mmHg 71%
09:00 +31°C° 0 mm 1 m/s 749 mmHg 62%
10:00 +33°C° 0 mm 1 m/s 749 mmHg 54%
11:00 +35°C° 0 mm 1 m/s 749 mmHg 45%
12:00 +36°C° 0 mm 3 m/s 748 mmHg 44%
13:00 +37°C° 0 mm 4 m/s 748 mmHg 44%
14:00 +37°C° 0 mm 5 m/s 747 mmHg 44%
15:00 +35°C° 0 mm 5 m/s 747 mmHg 49%
16:00 +34°C° 0 mm 5 m/s 747 mmHg 55%
17:00 +32°C° 0 mm 5 m/s 747 mmHg 61%
18:00 +29°C° 0.4 mm 3 m/s 748 mmHg 70%
19:00 +28°C° 0.4 mm 2 m/s 748 mmHg 80%
20:00 +26°C° 0.4 mm 1 m/s 749 mmHg 90%
21:00 +26°C° 0.2 mm 1 m/s 749 mmHg 90%
22:00 +26°C° 0.2 mm 1 m/s 749 mmHg 91%
23:00 +26°C° 0.2 mm 1 m/s 749 mmHg 92%

Amanhã, 30 Julho, Sexta-feira

Tempo Temperatura Precipitação Vento Pressão Humidade
00:00 +25°C° 0 mm 1 m/s 749 mmHg 92%
01:00 +25°C° 0 mm 1 m/s 748 mmHg 91%
02:00 +25°C° 0 mm 1 m/s 748 mmHg 91%
03:00 +25°C° 0 mm 1 m/s 748 mmHg 91%
04:00 +25°C° 0 mm 1 m/s 749 mmHg 91%
05:00 +24°C° 0 mm 1 m/s 749 mmHg 91%
06:00 +26°C° 0 mm 1 m/s 749 mmHg 85%
07:00 +27°C° 0 mm 1 m/s 750 mmHg 80%
08:00 +29°C° 0 mm 1 m/s 750 mmHg 74%
09:00 +31°C° 0.1 mm 1 m/s 750 mmHg 65%
10:00 +33°C° 0.1 mm 1 m/s 750 mmHg 56%
11:00 +35°C° 0.1 mm 1 m/s 750 mmHg 48%
12:00 +35°C° 0 mm 2 m/s 749 mmHg 48%
13:00 +35°C° 0 mm 4 m/s 749 mmHg 49%
14:00 +35°C° 0 mm 5 m/s 748 mmHg 49%
15:00 +34°C° 0 mm 5 m/s 748 mmHg 52%
16:00 +34°C° 0 mm 4 m/s 749 mmHg 55%
17:00 +33°C° 0 mm 4 m/s 749 mmHg 58%
18:00 +30°C° 0.2 mm 3 m/s 749 mmHg 67%
19:00 +28°C° 0.2 mm 2 m/s 750 mmHg 75%
20:00 +27°C° 0.2 mm 1 m/s 750 mmHg 84%
21:00 +26°C° 0 mm 1 m/s 750 mmHg 86%
22:00 +26°C° 0 mm 1 m/s 750 mmHg 87%
23:00 +26°C° 0 mm 1 m/s 750 mmHg 89%

Depois de amanhã, 31 Julho, Sábado

Tempo Temperatura Precipitação Vento Pressão Humidade
00:00 +26°C° 0 mm 1 m/s 750 mmHg 89%
01:00 +25°C° 0 mm 1 m/s 749 mmHg 89%
02:00 +25°C° 0 mm 1 m/s 749 mmHg 89%
03:00 +25°C° 0 mm 1 m/s 749 mmHg 90%
04:00 +25°C° 0 mm 1 m/s 749 mmHg 90%
05:00 +22°C° 0 mm 0 m/s 750 mmHg 91%
06:00 +26°C° 0 mm 1 m/s 750 mmHg 83%
07:00 +28°C° 0 mm 1 m/s 750 mmHg 74%
08:00 +31°C° 0 mm 1 m/s 751 mmHg 65%
09:00 +32°C° 0.4 mm 1 m/s 751 mmHg 61%
10:00 +34°C° 0.4 mm 2 m/s 751 mmHg 57%
11:00 +35°C° 0.4 mm 2 m/s 751 mmHg 53%
12:00 +35°C° 0 mm 3 m/s 750 mmHg 49%
13:00 +36°C° 0 mm 4 m/s 749 mmHg 46%
14:00 +37°C° 0 mm 4 m/s 749 mmHg 43%
15:00 +36°C° 0 mm 4 m/s 749 mmHg 47%
16:00 +34°C° 0 mm 4 m/s 749 mmHg 51%
17:00 +33°C° 0 mm 4 m/s 749 mmHg 55%
18:00 +30°C° 0.3 mm 3 m/s 749 mmHg 65%
19:00 +29°C° 0.3 mm 2 m/s 749 mmHg 75%
20:00 +27°C° 0.3 mm 1 m/s 750 mmHg 84%
21:00 +26°C° 0.3 mm 1 m/s 750 mmHg 86%
22:00 +26°C° 0.3 mm 1 m/s 750 mmHg 87%
23:00 +26°C° 0.3 mm 1 m/s 750 mmHg 89%

1 Agosto, Domingo

Tempo Temperatura Precipitação Vento Pressão Humidade
00:00 +26°C° 0 mm 1 m/s 749 mmHg 89%
01:00 +25°C° 0 mm 1 m/s 749 mmHg 89%
02:00 +25°C° 0 mm 1 m/s 749 mmHg 89%
03:00 +25°C° 0 mm 1 m/s 749 mmHg 89%
04:00 +25°C° 0 mm 1 m/s 749 mmHg 89%
05:00 +25°C° 0 mm 1 m/s 750 mmHg 90%
06:00 +26°C° 0 mm 1 m/s 750 mmHg 82%
07:00 +28°C° 0 mm 1 m/s 751 mmHg 75%
08:00 +30°C° 0 mm 1 m/s 751 mmHg 68%
09:00 +32°C° 0 mm 1 m/s 750 mmHg 60%
10:00 +35°C° 0 mm 2 m/s 750 mmHg 52%
11:00 +36°C° 0 mm 3 m/s 750 mmHg 45%
12:00 +37°C° 0 mm 4 m/s 749 mmHg 43%
13:00 +37°C° 0 mm 4 m/s 749 mmHg 42%
14:00 +37°C° 0 mm 5 m/s 748 mmHg 41%
15:00 +36°C° 0 mm 5 m/s 748 mmHg 46%
16:00 +35°C° 0 mm 5 m/s 748 mmHg 51%
17:00 +33°C° 0 mm 5 m/s 748 mmHg 56%
18:00 +30°C° 0.2 mm 4 m/s 749 mmHg 67%
19:00 +29°C° 0.2 mm 3 m/s 749 mmHg 77%
20:00 +27°C° 0.2 mm 2 m/s 750 mmHg 87%
21:00 +26°C° 0.1 mm 2 m/s 749 mmHg 88%
22:00 +26°C° 0.1 mm 1 m/s 749 mmHg 89%
23:00 +26°C° 0.1 mm 1 m/s 749 mmHg 91%

2 Agosto, Segunda-feira

Tempo Temperatura Precipitação Vento Pressão Humidade
00:00 +26°C° 0 mm 1 m/s 749 mmHg 90%
01:00 +26°C° 0 mm 1 m/s 749 mmHg 90%
02:00 +25°C° 0 mm 1 m/s 748 mmHg 90%
03:00 +25°C° 0.1 mm 1 m/s 749 mmHg 90%
04:00 +25°C° 0.1 mm 1 m/s 749 mmHg 90%
05:00 +25°C° 0.1 mm 1 m/s 749 mmHg 90%
06:00 +27°C° 0.1 mm 1 m/s 750 mmHg 84%
07:00 +28°C° 0.1 mm 1 m/s 750 mmHg 78%
08:00 +28°C° 0.1 mm 0 m/s 750 mmHg 72%
09:00 +32°C° 0.2 mm 1 m/s 750 mmHg 65%
10:00 +34°C° 0.2 mm 2 m/s 750 mmHg 58%
11:00 +36°C° 0.2 mm 3 m/s 749 mmHg 52%
12:00 +36°C° 0 mm 4 m/s 748 mmHg 49%
13:00 +36°C° 0 mm 5 m/s 748 mmHg 47%
14:00 +37°C° 0 mm 5 m/s 747 mmHg 45%
15:00 +35°C° 0 mm 5 m/s 747 mmHg 50%
16:00 +34°C° 0 mm 5 m/s 747 mmHg 55%
17:00 +33°C° 0 mm 5 m/s 747 mmHg 61%
18:00 +30°C° 0.3 mm 4 m/s 748 mmHg 70%
19:00 +29°C° 0.3 mm 3 m/s 748 mmHg 79%
20:00 +27°C° 0.3 mm 2 m/s 749 mmHg 89%
21:00 +27°C° 0 mm 1 m/s 749 mmHg 89%
22:00 +27°C° 0 mm 1 m/s 749 mmHg 90%
23:00 +27°C° 0 mm 1 m/s 749 mmHg 91%

3 Agosto, Terça-feira

Tempo Temperatura Precipitação Vento Pressão Humidade
00:00 +26°C° 0.1 mm 1 m/s 748 mmHg 91%
01:00 +26°C° 0.1 mm 1 m/s 748 mmHg 92%
02:00 +24°C° 0.1 mm 0 m/s 748 mmHg 92%
03:00 +26°C° 0.1 mm 1 m/s 748 mmHg 93%
04:00 +26°C° 0.1 mm 1 m/s 748 mmHg 93%
05:00 +25°C° 0.1 mm 1 m/s 748 mmHg 93%
06:00 +27°C° 0.1 mm 1 m/s 749 mmHg 86%
07:00 +29°C° 0.1 mm 1 m/s 749 mmHg 79%
08:00 +30°C° 0.1 mm 1 m/s 749 mmHg 72%
09:00 +32°C° 0 mm 2 m/s 749 mmHg 62%
10:00 +35°C° 0 mm 3 m/s 748 mmHg 52%
11:00 +37°C° 0 mm 4 m/s 748 mmHg 42%
12:00 +37°C° 0 mm 5 m/s 747 mmHg 42%
13:00 +37°C° 0 mm 5 m/s 747 mmHg 43%
14:00 +38°C° 0 mm 6 m/s 746 mmHg 43%
15:00 +36°C° 0 mm 6 m/s 746 mmHg 48%
16:00 +35°C° 0 mm 6 m/s 746 mmHg 54%
17:00 +33°C° 0 mm 6 m/s 746 mmHg 60%
18:00 +30°C° 0.3 mm 4 m/s 747 mmHg 70%
19:00 +29°C° 0.3 mm 3 m/s 747 mmHg 80%
20:00 +27°C° 0.3 mm 2 m/s 748 mmHg 90%
21:00 +27°C° 0 mm 2 m/s 748 mmHg 91%
22:00 +27°C° 0 mm 1 m/s 748 mmHg 92%
23:00 +27°C° 0 mm 1 m/s 748 mmHg 93%
Mostrar mais

Necessitamos do seu Consentimento

A Meteoprog e os seus Fornecedores de Serviços podem armazenar e aceder a dados pessoais como cookies, identificadores do dispositivo ou outras tecnologias semelhantes existentes no seu dispositivo e processar estes dados para personalizar conteúdos e anúncios, assim como funcionalidades nas redes sociais e análise de tráfego.

  • Armazenar e/ou aceder a informações no seu dispositivo

    Os cookies, identificadores do dispositivo ou outras informações podem ser armazenados ou acedidos no seu dispositivo, para os fins acima indicados.

  • Anúncios e conteúdos personalizados, medição de anúncios e conteúdos, dados sobre o público-alvo e desenvolvimento de produtos

    Os anúncios e os conteúdos podem ser personalizados com base num perfil. Podem ser adicionados dados adicionais para uma maior personalização dos anúncios e dos conteúdos. A eficácia dos anúncios e dos conteúdos pode ser medida. Podem ser obtidas informações sobre o público que visualizou os anúncios e os conteúdos. Estes dados podem ser usados para desenvolver ou melhorar sistemas, softwares ou a experiência do utilizador.

Ao clicar em "Eu concordo”, permitirá o uso de cookies, identificadores do dispositivo e web beacons mencionados ou outras tecnologias semelhantes. As configurações do navegador do seu dispositivo podem ser alteradas.

Para certos fins, podem ser invocados interesses legítimos ao invés de consentimento. Pode ler mais informação sobre este assunto na nossa Política de Privacidade e Cookies.